This is the latest recevied weather packets stored in our database for station/object WA1RYQ. If no packets are shown the sender has not sent any weather packets the latest 10 day(s).
| Time | Temp. | Humidity | Pressure | Rain* | Wind** | Luminosity | Snow |
|---|---|---|---|---|---|---|---|
| 1777889461 | 18.33° C | 82% | 1015.8 hPa | 0 mm | - | 0 W/m² | - |
| 1777888845 | 18.33° C | 82% | 1015.9 hPa | 0 mm | - | 0 W/m² | - |
| 1777887947 | 18.89° C | 81% | 1015.8 hPa | 0 mm | - | 0 W/m² | - |
| 1777887655 | 18.89° C | 82% | 1015.8 hPa | 0 mm | - | 0 W/m² | - |
| 1777887037 | 18.89° C | 81% | 1015.7 hPa | 0 mm | - | 0 W/m² | - |
| 1777884626 | 20° C | 79% | 1015.7 hPa | 0 mm | - | 0 W/m² | - |
| 1777883156 | 20° C | 79% | 1015.8 hPa | 0 mm | - | 0 W/m² | - |
| 1777878028 | 21.11° C | 76% | 1016.3 hPa | 0 mm | - | 0 W/m² | - |
| 1777877749 | 21.11° C | 76% | 1016.4 hPa | 0 mm | - | 0 W/m² | - |
| 1777877410 | 21.11° C | 76% | 1016.5 hPa | 0 mm | - | 0 W/m² | - |
| 1777877128 | 21.11° C | 76% | 1016.5 hPa | 0 mm | - | 0 W/m² | - |
| 1777876234 | 21.11° C | 77% | 1016.4 hPa | 0 mm | - | 0 W/m² | - |
| 1777875946 | 21.11° C | 77% | 1016.3 hPa | 0 mm | - | 0 W/m² | - |
| 1777875326 | 21.11° C | 77% | 1016.6 hPa | 0 mm | - | 0 W/m² | - |
| 1777874760 | 21.11° C | 77% | 1016.6 hPa | 0 mm | - | 0 W/m² | - |
| 1777873861 | 21.11° C | 77% | 1016.3 hPa | 0 mm | - | 0 W/m² | - |
| 1777873524 | 21.11° C | 77% | 1016.4 hPa | 0 mm | - | 0 W/m² | - |
| 1777872902 | 21.11° C | 77% | 1016.3 hPa | 0 mm | - | 0 W/m² | - |
| 1777872059 | 21.11° C | 77% | 1016.8 hPa | 0 mm | - | 0 W/m² | - |
| 1777871720 | 21.11° C | 76% | 1016.9 hPa | 0 mm | - | 0 W/m² | - |
| 1777871442 | 21.11° C | 76% | 1016.8 hPa | 0 mm | - | 0 W/m² | - |
| 1777870551 | 21.67° C | 75% | 1016.9 hPa | 0 mm | - | 0 W/m² | - |
| 1777867503 | 21.67° C | 74% | 1017.3 hPa | 0 mm | - | 0 W/m² | - |
| 1777865152 | 21.67° C | 70% | 1017.4 hPa | 0 mm | - | 0 W/m² | - |
| 1777864812 | 22.22° C | 70% | 1017.4 hPa | 0 mm | - | 0 W/m² | - |
* Rain latest hour (hover to see other rain measurements)
** Current wind speed in m/s (hover to see current wind gust speed)